User: anonymous   Login
Location: Treviso
(45.6669°N, 12.2430°E)
Time: 08:24:12
(UTC+02:00)
Language:

DELFI C3 - Orbit

View from above orbital plane
View from above orbital plane
View from above satellite
View from above satellite

Ground track
Ground track

The orbit data is extracted from the following two-line orbital elements,

1 32789U 08021G   19110.71770876  .00000681  00000-0  49728-4 0  9994
2 32789  97.4705 162.1478 0011211 334.4863  25.5810 15.06811295598088
Epoch (UTC): 20 April 2019 17:13:30
Eccentricity: 0.0011211
inclination: 97.4705°
perigee height: 538 km
apogee height: 554 km
right ascension of ascending node: 162.1478°
argument of perigee: 334.4863°
revolutions per day: 15.06811295
mean anomaly at epoch: 25.5810°
orbit number at epoch: 59808

The dashed part of the orbit path shows where the satellite is in the earth's shadow,  

DLR